Leesburg, VA

5:37 AM EST on December 08, 2019 (GMT -0500)
Leesburg Executive

Weather History for KJYO - April, 2019

Change the Weather History Date:

Saturday, April 6, 2019

  Actual Average (WUND) Record (WUND)
Temperature  
Mean Temperature 54 °F -  
Max Temperature 68 °F - - (-1)
Min Temperature 41 °F - - (-1)
Degree Days  
Heating Degree Days 10    
Growing Degree Days 4 (Base 50)    
Moisture  
Dew Point 46 °F    
Average Humidity 80    
Maximum Humidity 100    
Minimum Humidity 46    
Precipitation  
Precipitation 0.00 in - - ()
Sea Level Pressure  
Sea Level Pressure 30.22 in    
Wind  
Wind Speed 4 mph (NNE)    
Max Wind Speed 9 mph    
Max Gust Speed -    
Visibility 7 miles    
Events      
Averages and records for this station are not official NWS values.
T = Trace of Precipitation, MM = Missing Value Source: NWS Daily Summary

Daily Weather History Graph

Daily Weather History Graph

Search for Another Location

Airport or City:

Astronomy

Apr. 06, 2019 Rise Set
Actual Time 6:47 AM EDT 7:38 PM EDT
Civil Twilight 6:20 AM EDT 8:05 PM EDT
Nautical Twilight 5:48 AM EDT 8:38 PM EDT
Astronomical Twilight 5:14 AM EDT 9:11 PM EDT
Moon 7:47 AM EDT (4/6) 9:01 PM EDT (4/6)
Length of Visible Light 13h 45m
Length of Day
12h 51m
New Moon, 2% of the Moon is Illuminated
Apr 6
New Moon
Apr 12
First Quarter
Apr 19
Full
Apr 26
Last Quarter
May 4
New

Hourly Weather History & Observations

Time (EDT) Temp. Windchill Dew Point Humidity Pressure Visibility Wind Dir Wind Speed Gust Speed Precip Events Conditions
12:15 AM 41.0 °F 39.0 °F 41.0 °F 100% 30.24 in 2.0 mi NNE 3.5 mph - N/A   Overcast
12:35 AM 41.0 °F 38.0 °F 41.0 °F 100% 30.23 in 2.0 mi NNE 4.6 mph - N/A   Overcast
12:55 AM 41.0 °F 38.0 °F 41.0 °F 100% 30.23 in 1.8 mi North 4.6 mph - N/A   Overcast
1:15 AM 41.0 °F 38.0 °F 41.0 °F 100% 30.22 in 1.2 mi North 4.6 mph - N/A   Overcast
1:35 AM 41.0 °F 37.1 °F 41.0 °F 100% 30.22 in 1.0 mi North 5.8 mph - N/A   Overcast
1:55 AM 41.0 °F 37.1 °F 41.0 °F 100% 30.22 in 1.0 mi North 5.8 mph - N/A   Overcast
2:15 AM 41.0 °F 36.4 °F 41.0 °F 100% 30.21 in 0.8 mi North 6.9 mph - N/A   Overcast
2:35 AM 41.0 °F 38.0 °F 41.0 °F 100% 30.21 in 1.0 mi North 4.6 mph - N/A   Overcast
2:55 AM 41.0 °F 37.1 °F 41.0 °F 100% 30.21 in 1.2 mi NNE 5.8 mph - N/A   Overcast
3:15 AM 41.0 °F 38.0 °F 41.0 °F 100% 30.20 in 1.8 mi NNE 4.6 mph - N/A   Overcast
3:35 AM 41.0 °F 37.1 °F 41.0 °F 100% 30.20 in 2.0 mi NNE 5.8 mph - N/A   Overcast
3:55 AM 41.0 °F - 41.0 °F 100% 30.20 in 2.0 mi Calm Calm - N/A   Overcast
4:35 AM 41.0 °F 38.0 °F 41.0 °F 100% 30.20 in 2.5 mi NNE 4.6 mph - N/A   Overcast
4:55 AM 41.0 °F 38.0 °F 41.0 °F 100% 30.20 in 3.0 mi NNE 4.6 mph - N/A   Overcast
5:15 AM 41.0 °F 39.0 °F 41.0 °F 100% 30.20 in 3.0 mi NNE 3.5 mph - N/A   Overcast
5:35 AM 41.0 °F 39.0 °F 41.0 °F 100% 30.21 in 2.5 mi NNE 3.5 mph - N/A   Overcast
5:55 AM 41.0 °F 39.0 °F 41.0 °F 100% 30.21 in 2.0 mi NNE 3.5 mph - N/A   Overcast
6:15 AM 41.0 °F 38.0 °F 41.0 °F 100% 30.21 in 2.0 mi NNE 4.6 mph - N/A   Overcast
6:35 AM 41.0 °F 39.0 °F 41.0 °F 100% 30.21 in 1.5 mi NNE 3.5 mph - N/A   Overcast
6:55 AM 41.0 °F 38.0 °F 41.0 °F 100% 30.22 in 3.0 mi North 4.6 mph - N/A   Overcast
7:15 AM 41.0 °F - 41.0 °F 100% 30.23 in 1.8 mi Calm Calm - N/A   Overcast
7:35 AM 41.0 °F 39.0 °F 41.0 °F 100% 30.23 in 2.0 mi NNE 3.5 mph - N/A   Overcast
7:55 AM 41.0 °F 38.0 °F 41.0 °F 100% 30.23 in 2.5 mi North 4.6 mph - N/A   Overcast
8:15 AM 42.8 °F 41.1 °F 42.8 °F 100% 30.24 in 3.0 mi North 3.5 mph - N/A   Overcast
8:35 AM 42.8 °F 41.1 °F 42.8 °F 100% 30.24 in 3.0 mi NNE 3.5 mph - N/A   Overcast
8:55 AM 42.8 °F - 42.8 °F 100% 30.24 in 4.0 mi Calm Calm - N/A   Scattered Clouds
9:15 AM 44.6 °F 43.1 °F 42.8 °F 93% 30.24 in 5.0 mi NNE 3.5 mph - N/A   Mostly Cloudy
9:35 AM 44.6 °F 42.2 °F 42.8 °F 93% 30.24 in 5.0 mi North 4.6 mph - N/A   Scattered Clouds
9:55 AM 46.4 °F 45.2 °F 44.6 °F 93% 30.23 in 7.0 mi North 3.5 mph - N/A   Clear
10:15 AM 50.0 °F - 44.6 °F 82% 30.24 in 7.0 mi Calm Calm - N/A   Clear
10:35 AM 50.0 °F - 46.4 °F 87% 30.24 in 7.0 mi Calm Calm - N/A   Clear
10:55 AM 51.8 °F - 46.4 °F 82% 30.25 in 10.0 mi NNE 3.5 mph - N/A   Clear
11:15 AM 53.6 °F - 46.4 °F 77% 30.25 in 10.0 mi NW 3.5 mph - N/A   Clear
11:35 AM 55.4 °F - 48.2 °F 77% 30.25 in 10.0 mi Calm Calm - N/A   Clear
11:55 AM 55.4 °F - 48.2 °F 77% 30.24 in 10.0 mi Calm Calm - N/A   Clear
12:15 PM 57.2 °F - 50.0 °F 77% 30.24 in 10.0 mi Calm Calm - N/A   Clear
12:35 PM 59.0 °F - 50.0 °F 72% 30.23 in 10.0 mi Calm Calm - N/A   Scattered Clouds
12:55 PM 60.8 °F - 50.0 °F 68% 30.23 in 10.0 mi Calm Calm - N/A   Mostly Cloudy
1:15 PM 60.8 °F - 50.0 °F 68% 30.22 in 10.0 mi NE 3.5 mph - N/A   Scattered Clouds
1:35 PM 60.8 °F - 50.0 °F 68% 30.22 in 10.0 mi NE 4.6 mph - N/A   Clear
1:55 PM 62.6 °F - 50.0 °F 63% 30.22 in 10.0 mi ENE 3.5 mph - N/A   Clear
2:15 PM 62.6 °F - 50.0 °F 63% 30.22 in 10.0 mi Calm Calm - N/A   Scattered Clouds
2:35 PM 62.6 °F - 50.0 °F 63% 30.22 in 10.0 mi Calm Calm - N/A   Scattered Clouds
2:55 PM 64.4 °F - 50.0 °F 59% 30.21 in 10.0 mi NE 3.5 mph - N/A   Scattered Clouds
3:15 PM 64.4 °F - 50.0 °F 59% 30.22 in 10.0 mi NE 5.8 mph - N/A   Scattered Clouds
3:35 PM 64.4 °F - 50.0 °F 59% 30.21 in 10.0 mi NNE 8.1 mph - N/A   Scattered Clouds
3:55 PM 64.4 °F - 50.0 °F 59% 30.21 in 10.0 mi NNE 6.9 mph - N/A   Mostly Cloudy
4:15 PM 66.2 °F - 50.0 °F 56% 30.20 in 10.0 mi ENE 9.2 mph - N/A   Mostly Cloudy
4:35 PM 66.2 °F - 50.0 °F 56% 30.20 in 10.0 mi NE 3.5 mph - N/A   Mostly Cloudy
4:55 PM 66.2 °F - 50.0 °F 56% 30.19 in 10.0 mi North 4.6 mph - N/A   Scattered Clouds
5:15 PM 66.2 °F - 46.4 °F 49% 30.19 in 10.0 mi NE 3.5 mph - N/A   Scattered Clouds
5:35 PM 66.2 °F - 48.2 °F 52% 30.18 in 10.0 mi NE 6.9 mph - N/A   Clear
5:55 PM 68.0 °F - 46.4 °F 46% 30.18 in 10.0 mi NNE 4.6 mph - N/A   Clear
6:15 PM 66.2 °F - 44.6 °F 46% 30.18 in 10.0 mi East 3.5 mph - N/A   Clear
6:35 PM 66.2 °F - 48.2 °F 52% 30.18 in 10.0 mi Calm Calm - N/A   Clear
6:55 PM 66.2 °F - 46.4 °F 49% 30.19 in 10.0 mi NNE 3.5 mph - N/A   Clear
7:15 PM 64.4 °F - 46.4 °F 52% 30.20 in 10.0 mi Calm Calm - N/A   Clear
7:35 PM 64.4 °F - 46.4 °F 52% 30.20 in 10.0 mi NE 4.6 mph - N/A   Clear
7:55 PM 62.6 °F - 46.4 °F 55% 30.20 in 10.0 mi NE 4.6 mph - N/A   Clear
8:15 PM 62.6 °F - 46.4 °F 55% 30.21 in 10.0 mi NNE 3.5 mph - N/A   Clear
8:35 PM 60.8 °F - 46.4 °F 59% 30.21 in 10.0 mi Calm Calm - N/A   Clear
8:55 PM 57.2 °F - 48.2 °F 72% 30.22 in 10.0 mi Calm Calm - N/A   Clear
9:15 PM 57.2 °F - 46.4 °F 67% 30.23 in 10.0 mi Calm Calm - N/A   Clear
9:35 PM 55.4 °F - 48.2 °F 77% 30.23 in 10.0 mi Calm Calm - N/A   Clear
9:55 PM 53.6 °F - 50.0 °F 88% 30.23 in 10.0 mi Calm Calm - N/A   Clear
10:15 PM 51.8 °F - 50.0 °F 94% 30.24 in 10.0 mi Calm Calm - N/A   Clear
10:35 PM 53.6 °F - 50.0 °F 88% 30.24 in 10.0 mi Calm Calm - N/A   Clear
10:55 PM 53.6 °F - 50.0 °F 88% 30.25 in 10.0 mi Calm Calm - N/A   Clear
11:15 PM 55.4 °F - 50.0 °F 82% 30.25 in 10.0 mi South 3.5 mph - N/A   Clear
11:35 PM 51.8 °F - 48.2 °F 88% 30.25 in 10.0 mi Calm Calm - N/A   Scattered Clouds
11:55 PM 55.4 °F - 50.0 °F 82% 30.26 in 10.0 mi Calm Calm - N/A   Mostly Cloudy